| time (UTC) | temp F | wind direction | speed MPH | gust MPH | rain 1hr in | rain 24hr in | rain mn in | humidity % | barometer mb |
| 20260505081540 | 30 | 88 | 4.0 | 7.0 | 0.00 | 0.00 | 0.00 | 75 | 1015.3 |
| 20260505080038 | 30 | 108 | 3.0 | 8.0 | 0.00 | 0.00 | 0.00 | 74 | 1015.3 |
| 20260505074535 | 29 | 68 | 0.0 | 2.0 | 0.00 | 0.00 | 0.00 | 77 | 1015.2 |
| 20260505073032 | 30 | 117 | 0.0 | 1.0 | 0.00 | 0.00 | 0.00 | 76 | 1015.3 |
| 20260505071528 | 31 | 118 | 0.0 | 3.0 | 0.00 | 0.00 | 0.00 | 73 | 1015.2 |
| 20260505070024 | 32 | 71 | 2.0 | 3.0 | 0.00 | 0.00 | 0.00 | 72 | 1015.1 |
| 20260505064529 | 33 | 69 | 0.0 | 3.0 | 0.00 | 0.00 | 0.00 | 69 | 1015.1 |
| 20260505063016 | 34 | 60 | 2.0 | 4.0 | 0.00 | 0.00 | 0.00 | 67 | 1015.1 |
| 20260505061513 | 35 | 73 | 2.0 | 3.0 | 0.00 | 0.00 | 0.00 | 67 | 1015.0 |
| 20260505060012 | 36 | 76 | 1.0 | 2.0 | 0.00 | 0.00 | 0.00 | 64 | 1015.0 |
| 20260505054516 | 36 | 91 | 1.0 | 3.0 | 0.00 | 0.00 | 0.00 | 64 | 1014.8 |
| 20260505053005 | 37 | 56 | 2.0 | 3.0 | 0.00 | 0.00 | 0.00 | 64 | 1014.9 |
| 20260505051504 | 38 | 61 | 1.0 | 3.0 | 0.00 | 0.00 | 0.00 | 62 | 1014.8 |
| 20260505050109 | 38 | 68 | 1.0 | 3.0 | 0.00 | 0.00 | 0.00 | 58 | 1014.9 |
| 20260505041607 | 39 | 129 | 1.0 | 3.0 | 0.00 | 0.00 | 0.00 | 54 | 1014.6 |
| 20260505034609 | 40 | 101 | 2.0 | 8.0 | 0.00 | 0.00 | 0.00 | 51 | 1014.5 |
| 20260505033054 | 41 | 131 | 2.0 | 6.0 | 0.00 | 0.00 | 0.00 | 50 | 1014.3 |
| 20260505031552 | 41 | 343 | 0.0 | 6.0 | 0.00 | 0.00 | 0.00 | 50 | 1014.0 |
| 20260505030059 | 42 | 60 | 3.0 | 7.0 | 0.00 | 0.00 | 0.00 | 50 | 1013.5 |
| 20260505024549 | 42 | 62 | 5.0 | 10.0 | 0.00 | 0.00 | 0.00 | 49 | 1013.3 |
| 20260505023045 | 43 | 17 | 1.0 | 6.0 | 0.00 | 0.00 | 0.00 | 50 | 1013.1 |
| 20260505021542 | 43 | 40 | 6.0 | 20.0 | 0.00 | 0.00 | 0.00 | 51 | 1012.8 |
| 20260505020053 | 44 | 16 | 4.0 | 14.0 | 0.00 | 0.00 | 0.00 | 53 | 1012.6 |
| 20260505014541 | 44 | 68 | 6.0 | 19.0 | 0.00 | 0.00 | 0.00 | 52 | 1012.5 |
| 20260505013041 | 45 | 68 | 5.0 | 17.0 | 0.00 | 0.00 | 0.00 | 55 | 1012.4 |
| 20260505011537 | 45 | 13 | 6.0 | 17.0 | 0.00 | 0.00 | 0.00 | 56 | 1012.3 |
| 20260505010043 | 45 | 45 | 9.0 | 17.0 | 0.00 | 0.00 | 0.00 | 55 | 1012.4 |
| 20260505004555 | 46 | 37 | 12.0 | 19.0 | 0.00 | 0.00 | 0.00 | 54 | 1012.3 |
| 20260505003034 | 47 | 55 | 9.0 | 15.0 | 0.00 | 0.00 | 0.00 | 53 | 1012.1 |
| 20260505001536 | 47 | 75 | 10.0 | 16.0 | 0.00 | 0.00 | 0.00 | 53 | 1011.9 |
| 20260505000036 | 48 | 18 | 10.0 | 17.0 | 0.00 | 0.00 | 0.00 | 52 | 1011.6 |
| 20260504234532 | 48 | 20 | 8.0 | 16.0 | 0.00 | 0.00 | 0.00 | 51 | 1011.4 |
| 20260504233032 | 49 | 28 | 8.0 | 17.0 | 0.00 | 0.00 | 0.00 | 51 | 1011.1 |
| 20260504231535 | 50 | 46 | 8.0 | 15.0 | 0.00 | 0.00 | 0.00 | 50 | 1010.9 |
| 20260504230031 | 51 | 46 | 7.0 | 15.0 | 0.00 | 0.00 | 0.00 | 46 | 1010.8 |
| 20260504224534 | 51 | 71 | 8.0 | 17.0 | 0.00 | 0.00 | 0.00 | 46 | 1010.7 |
| 20260504223028 | 51 | 34 | 6.0 | 15.0 | 0.00 | 0.00 | 0.00 | 45 | 1010.6 |
| 20260504221535 | 50 | 29 | 6.0 | 17.0 | 0.00 | 0.00 | 0.00 | 46 | 1010.6 |
| 20260504220024 | 51 | 36 | 9.0 | 15.0 | 0.00 | 0.00 | 0.00 | 43 | 1010.8 |
| 20260504214523 | 50 | 58 | 8.0 | 13.0 | 0.00 | 0.00 | 0.00 | 44 | 1010.8 |
| 20260504213035 | 50 | 88 | 8.0 | 11.0 | 0.00 | 0.00 | 0.00 | 44 | 1010.7 |
| 20260504211520 | 50 | 54 | 5.0 | 15.0 | 0.00 | 0.00 | 0.00 | 50 | 1010.7 |
| 20260504210018 | 50 | 52 | 5.0 | 13.0 | 0.00 | 0.00 | 0.00 | 47 | 1010.7 |
| 20260504204516 | 50 | 54 | 5.0 | 14.0 | 0.00 | 0.00 | 0.00 | 49 | 1010.8 |
| 20260504203016 | 50 | 37 | 7.0 | 14.0 | 0.00 | 0.00 | 0.00 | 48 | 1010.7 |
| 20260504201515 | 49 | 23 | 5.0 | 10.0 | 0.00 | 0.00 | 0.00 | 49 | 1010.8 |
| 20260504200015 | 48 | 40 | 6.0 | 11.0 | 0.00 | 0.00 | 0.00 | 49 | 1010.8 |
| 20260504194518 | 48 | 56 | 9.0 | 16.0 | 0.00 | 0.00 | 0.00 | 50 | 1010.7 |
| 20260504193016 | 49 | 47 | 9.0 | 12.0 | 0.00 | 0.00 | 0.00 | 50 | 1010.8 |
| 20260504191510 | 48 | 40 | 8.0 | 15.0 | 0.00 | 0.00 | 0.00 | 53 | 1010.9 |
| 20260504190014 | 48 | 34 | 8.0 | 14.0 | 0.00 | 0.00 | 0.00 | 51 | 1010.7 |
| 20260504184526 | 48 | 68 | 6.0 | 14.0 | 0.00 | 0.00 | 0.00 | 52 | 1010.8 |
| 20260504183007 | 49 | 31 | 8.0 | 14.0 | 0.00 | 0.00 | 0.00 | 50 | 1010.9 |
| 20260504181507 | 49 | 26 | 7.0 | 15.0 | 0.00 | 0.00 | 0.00 | 49 | 1011.0 |
| 20260504180005 | 49 | 7 | 8.0 | 12.0 | 0.00 | 0.00 | 0.00 | 49 | 1010.9 |
| 20260504174504 | 49 | 23 | 5.0 | 15.0 | 0.00 | 0.00 | 0.00 | 50 | 1011.0 |
| 20260504173009 | 48 | 52 | 6.0 | 13.0 | 0.00 | 0.00 | 0.00 | 49 | 1011.1 |
| 20260504171501 | 48 | 30 | 5.0 | 15.0 | 0.00 | 0.00 | 0.00 | 49 | 1011.1 |